Location: Armidale
(30.5016°S, 151.6662°E)
Time: 10:56:24
(UTC+10:00)

N. Korean satellite - Pass Details

Date: 18 May 2021
Orbit: 450 x 500 km, 97.2° (Epoch: 13 June)

Event Time Altitude Azimuth Distance (km) Brightness Sun altitude
Rises 17:52:11 0° 187° (S) 2,625 10.2 -10.3°
Reaches altitude 10° 17:54:40 10° 203° (SSW) 1,732 9.5 -10.8°
Maximum altitude 17:57:29 21° 252° (WSW) 1,197 9.3 -11.4°
Drops below altitude 10° 18:00:15 10° 301° (WNW) 1,708 10.7 -12.0°
Sets 18:02:41 0° 318° (NW) 2,576 11.3 -12.5°
